Torna al catalogo

STARLINK-31224

AttivoComunicazioniVLEO
NORAD 59029·PAYLOAD·🇺🇸 United States

Lanciato Feb 25, 2024 da Cape Canaveral Space Force Station

Loading…

Prossimi Passaggi (prossime 24 ore)

TLE

AggiornatoSource: CelesTrak SupGP

Epoca: Sep 15, 2026, 02:52 UTC

1 59029C 24038G   26258.11993056 -.00021265  00000+0 -77026-3 0  2589
2 59029  43.0019  37.0100 0001605 263.6871  15.9587 15.27586947    10

Traccia STARLINK-31224 in tempo reale con AllMySat

Download on the App Store